Погода в Тунисе

Тунис     36°49′10″N   10°11′19″E
темп.,
°C
ветер,
м/с
пор.,
м/с
влажн.,
%
обл.,
%
осадки,
мм/ч
давл.,
гПа
погр.,
м
22 сентября, ср
ср2201:00+26зсз2469100 0.0 1018239
04:00+25ссз3575100 0.0 1019422
07:00+25всв237426 0.0 1017287
10:00+28вюв235595 0.0 1017770
13:00+31всв444743 0.0 10161310
16:00+30св545477 0.0 10151025
19:00+28юв346572 0.0 1015308
22:00+26в347247 0.0 1016198
23 сентября, чт
чт2301:00+25в33812 0.0 1017232
04:00+24вюв348712 0.0 1016262
07:00+24вюв348488 0.0 1017346
10:00+28вюв346099 0.0 1019882
13:00+30всв4450100 0.0 10171083
16:00+30в2352100 0.1 10171112
19:00+27юв46665 0.1 1017348
22:00+25ююв3676100 0.0 1018280
24 сентября, пт
пт2401:00+25ююв3581100 0.0 1017266
04:00+25юв4779100 0.0 1016330
07:00+25ююв3779100 0.0 1017370
10:00+30ю465694 0.0 1017596
13:00+34ю673693 0.0 10161053
16:00+35ююв673518 0.0 10151198
19:00+28ююв5126498 0.0 1015304
22:00+28ююв466195 0.0 1015168
25 сентября, сб
сб2501:00+26ююв4874100 0.0 1015254
04:00+25ю35785 0.0 1015118
07:00+25ю34780 0.0 1016124
10:00+32ю34420 0.0 1016437
13:00+37ююв33260 0.0 10161060
16:00+38вюв43252 0.0 10141326
19:00+30юв45555 0.0 1016142
22:00+27ююв347112 0.0 1017125
26 сентября, вс
вс2601:00+26ююв23787 0.0 1017103
04:00+25ю247466 0.0 101793
07:00+25ююв2370100 0.0 101799
10:00+31ю3444100 0.0 1018436
13:00+35ююв553164 0.0 1017962
16:00+34ююв563796 0.0 1016649
19:00+29ююв47525 0.0 1016263
22:00+27юв126298 0.0 101792